Tracking 18633 objects as of 23-April-2017
HD Live streaming from Space Station
objects crossing your sky now

HELIOS-2A

Track HELIOS-2A now!
10-day predictions
HELIOS-2A is classified as:


NORAD ID: 28492
Int'l Code: 2004-049A
Perigee: 686.6 km
Apogee: 689.5 km
Inclination: 98.1 °
Period: 98.4 minutes
Semi major axis: 7059 km
RCS: Unknown
Launch date: December 18, 2004
Source: France (FR)
Launch site: FRENCH GUIANA (FRGUI)

Optical reconnaissance; independent military intelligence capability for the EU.
Your satellite tracking list
Your tracking list is empty





NASA's NSSDC Master Catalog

Two Line Element Set (TLE):
1 28492U 04049A   17110.02334969 0.00000100  00000-0  19192-4 0    08
2 28492  98.1455  47.4991 0002000 155.1083 204.8916 14.63803013    07
Source of the keplerian elements: McCants